This demonstration page uses our WeatherBlox Daily Observations layout. Learn more.

40.92945, -100.16068

Hourly Observations for March 29, 2015

Temp ( °F °C ) Dew Point ( °F °C ) Humidity (%) Winds ( mph kmh ) Pressure ( in mb ) Visibility ( mi km ) Precip ( " mm )
12:15 am 00:15 Cloudy 60 15.6 40 4.4 47 47 S 22 35 29.77 1008 10 16.0934 N/A
12:35 am 00:35 Partly Cloudy 58 14.5 40 4.2 50 50 S 17 28 29.74 1007 10 16.0934 N/A
12:55 am 00:55 Clear 57 13.7 40 4.2 53 53 SE 13 20 29.77 1008 10 16.0934 N/A
1:15 am 01:15 Partly Cloudy 57 13.7 40 4.3 53 53 E 8 13 29.8 1009 10 16.0934 N/A
1:35 am 01:35 Mostly Cloudy 57 13.8 40 4.6 54 54 S 20 31 29.74 1007 10 16.0934 N/A
1:55 am 01:55 Partly Cloudy 60 15.5 41 5.1 50 50 SSW 25 41 29.74 1007 10 16.0934 N/A
2:15 am 02:15 Partly Cloudy 62 16.4 41 4.9 47 47 SSW 23 37 29.71 1006 10 16.0934 N/A
2:35 am 02:35 Partly Cloudy 60 15.6 40 4.7 49 49 NNW 8 13 29.74 1007 10 16.0934 N/A
2:55 am 02:55 Clear 59 14.8 40 4.7 51 51 WNW 10 17 29.77 1008 10 16.0934 N/A
3:15 am 03:15 Clear 60 15.4 39 3.9 46 46 NW 20 31 29.8 1009 10 16.0934 N/A
3:35 am 03:35 Clear 61 15.9 35 1.7 39 39 NNW 24 39 29.83 1010 10 16.0934 N/A
3:55 am 03:55 Clear 59 15 34 1.1 39 39 NNW 22 35 29.85 1011 10 16.0934 N/A
4:15 am 04:15 Clear 58 14.3 35 1.6 42 42 NNW 17 28 29.85 1011 10 16.0934 N/A
4:35 am 04:35 Clear 57 14.1 35 1.4 42 42 NNW 16 26 29.88 1012 10 16.0934 N/A
4:55 am 04:55 Clear 57 13.8 33 0.4 40 40 NNW 18 30 29.88 1012 10 16.0934 N/A
5:15 am 05:15 Clear 56 13.1 33 0.5 42 42 NNW 13 20 29.88 1012 10 16.0934 N/A
5:35 am 05:35 Clear 54 12.1 34 1.1 47 47 NNW 13 20 29.94 1014 10 16.0934 N/A
5:55 am 05:55 Clear 49 9.2 33 0.7 56 56 NW 10 17 29.97 1015 10 16.0934 N/A
6:15 am 06:15 Clear 47 8.3 33 0.8 60 60 NW 10 17 30 1016 10 16.0934 N/A
6:35 am 06:35 Clear 46 7.5 34 1 64 64 WNW 10 17 30 1016 10 16.0934 N/A
6:55 am 06:55 Clear 47 8.5 34 1.3 61 61 WNW 12 19 30 1016 10 16.0934 N/A
7:15 am 07:15 Clear 44 6.9 33 0.8 65 65 WNW 12 19 30 1016 10 16.0934 N/A
7:35 am 07:35 Sunny 46 8 34 1.1 62 62 WNW 16 26 30.03 1017 10 16.0934 N/A
7:55 am 07:55 Sunny 47 8.3 32 0 56 56 WNW 18 30 30.03 1017 10 16.0934 N/A
8:15 am 08:15 Sunny 47 8.4 31 -0.8 53 53 NW 18 30 30.06 1018 10 16.0934 N/A
8:35 am 08:35 Sunny 48 9 28 -2.4 45 45 NW 22 35 30.06 1018 10 16.0934 N/A
8:55 am 08:55 Sunny 53 11.9 29 -1.5 40 40 NNW 32 52 30.03 1017 10 16.0934 N/A
9:15 am 09:15 Sunny 54 12.4 32 0.1 43 43 NNW 29 46 30.03 1017 10 16.0934 N/A
9:35 am 09:35 Sunny 55 12.8 33 0.5 43 43 NNW 32 52 30.06 1018 10 16.0934 N/A
9:55 am 09:55 Sunny 55 13 32 0 41 41 NNW 35 56 30.06 1018 7 11.26538 N/A
10:15 am 10:15 Sunny 56 13.4 30 -1.1 37 37 NNW 38 61 30.09 1019 7 11.26538 N/A
10:35 am 10:35 Sunny 56 13.5 30 -1.1 37 37 NNW 35 56 30.09 1019 10 16.0934 N/A
10:55 am 10:55 Sunny 56 13.5 29 -1.4 36 36 NNW 31 50 30.12 1020 10 16.0934 N/A
11:15 am 11:15 Sunny 57 14 30 -1.2 35 35 NW 30 48 30.12 1020 10 16.0934 N/A
11:35 am 11:35 Sunny 58 14.5 30 -1.1 34 34 N 31 50 30.09 1019 10 16.0934 N/A
11:55 am 11:55 Sunny 59 15.1 31 -0.7 34 34 NNW 26 43 30.09 1019 10 16.0934 N/A
12:15 pm 12:15 Sunny 60 15.5 29 -1.8 31 31 NNW 29 46 30.12 1020 10 16.0934 N/A
12:35 pm 12:35 Sunny 61 16 27 -2.6 28 28 NNW 28 44 30.09 1019 10 16.0934 N/A
12:55 pm 12:55 Sunny 61 16.3 23 -5.1 23 23 NNW 33 54 30.12 1020 10 16.0934 N/A
1:15 pm 13:15 Sunny 61 16.1 20 -6.7 20 20 N 25 41 30.12 1020 10 16.0934 N/A
1:35 pm 13:35 Sunny 62 16.7 19 -7.3 19 19 N 26 43 30.12 1020 10 16.0934 N/A
1:55 pm 13:55 Sunny 62 16.7 13 -10.4 15 15 N 23 37 30.09 1019 10 16.0934 N/A
2:15 pm 14:15 Sunny 62 16.9 11 -11.7 13 13 N 20 31 30.09 1019 10 16.0934 N/A
2:35 pm 14:35 Sunny 63 17.1 9 -12.6 12 12 NNW 25 41 30.09 1019 10 16.0934 N/A
2:55 pm 14:55 Sunny 64 17.7 10 -12.2 12 12 N 22 35 30.06 1018 10 16.0934 N/A
3:15 pm 15:15 Sunny 64 17.6 10 -12.1 12 12 NNW 23 37 30.06 1018 10 16.0934 N/A
3:35 pm 15:35 Sunny 64 17.6 10 -12.1 12 12 N 23 37 30.06 1018 10 16.0934 N/A
3:55 pm 15:55 Sunny 64 17.7 11 -11.8 12 12 N 21 33 30.06 1018 10 16.0934 N/A
4:15 pm 16:15 Sunny 65 18.1 12 -11.2 13 13 NW 22 35 30.06 1018 10 16.0934 N/A
4:35 pm 16:35 Sunny 64 17.6 11 -11.5 13 13 NNW 18 30 30.06 1018 10 16.0934 N/A
4:55 pm 16:55 Sunny 64 17.9 12 -10.9 13 13 N 16 26 30.06 1018 10 16.0934 N/A
5:15 pm 17:15 Sunny 64 17.6 12 -11.1 13 13 N 16 26 30.03 1017 10 16.0934 N/A
5:35 pm 17:35 Sunny 64 17.6 12 -11.2 13 13 N 14 22 30.03 1017 10 16.0934 N/A
5:55 pm 17:55 Sunny 64 17.6 13 -10.8 13 13 NNW 12 19 30.03 1017 10 16.0934 N/A
6:15 pm 18:15 Sunny 63 17.1 12 -10.9 14 14 NNE 13 20 30.06 1018 10 16.0934 N/A
6:35 pm 18:35 Sunny 63 17 12 -11.1 14 14 NNW 13 20 30.09 1019 10 16.0934 N/A
6:55 pm 18:55 Sunny 62 16.7 12 -11.2 14 14 NNW 8 13 30.09 1019 10 16.0934 N/A
7:15 pm 19:15 Sunny 61 16.1 12 -11 15 15 N 9 15 30.09 1019 10 16.0934 N/A
7:35 pm 19:35 Sunny 58 14.7 13 -10.8 16 16 NNW 6 9 30.09 1019 10 16.0934 N/A
7:55 pm 19:55 Sunny 56 13.3 13 -10.7 18 18 NNE 3 6 30.12 1020 10 16.0934 N/A
8:15 pm 20:15 Clear 53 11.4 11 -11.4 19 19 ENE 3 6 30.15 1021 10 16.0934 N/A
8:35 pm 20:35 Clear 50 9.8 13 -10.6 23 23 Calm 30.15 1021 10 16.0934 N/A
8:55 pm 20:55 Clear 49 9.3 13 -10.8 23 23 E 5 7 30.15 1021 10 16.0934 N/A
9:15 pm 21:15 Clear 48 8.8 14 -10 26 26 Calm 30.18 1022 10 16.0934 N/A
9:35 pm 21:35 Clear 42 5.4 14 -10.1 32 32 SSE 5 7 30.24 1024 10 16.0934 N/A
9:55 pm 21:55 Hazy 44 6.4 13 -10.5 29 29 SSE 3 6 30.21 1023 5 8.0467 N/A
10:15 pm 22:15 Clear 45 7.1 15 -9.3 30 30 SSE 7 11 30.21 1023 7 11.26538 N/A
10:35 pm 22:35 Clear 42 5.7 16 -9.1 34 34 SSE 6 9 30.18 1022 7 11.26538 N/A
10:55 pm 22:55 Clear 40 4.6 17 -8.4 39 39 SSE 6 9 30.18 1022 10 16.0934 N/A
11:15 pm 23:15 Clear 41 4.9 17 -8.5 38 38 S 5 7 30.18 1022 10 16.0934 N/A
11:35 pm 23:35 Clear 42 5.6 15 -9.2 34 34 S 3 6 30.18 1022 10 16.0934 N/A
11:55 pm 23:55 Clear 41 5 16 -8.9 36 36 Calm 30.18 1022 10 16.0934 N/A

Powered by AerisWeather